,,,PA_Meas_PMT16A,,PR_Meas_QMR101_102,,RH_Meas_QMH101,,SR_Meas_QMS101,,TA_Meas_QMH101,,GenWind,,GenWind,
date,time,status,PA,status,PR,status,RH,status,SR,status,TA,status,DirAvg,status,SpdAvg,
2012-09-02, 00:00:04,VALID,1010.99,VALID,0,VALID,104,VALID,0,VALID,23.5186,VALID,165,VALID,0,
2012-09-02, 00:01:04,VALID,1010.95,VALID,0,VALID,104,VALID,0,VALID,23.5186,VALID,165,VALID,0,
2012-09-02, 00:02:04,VALID,1010.96,VALID,0,VALID,104,VALID,0,VALID,23.4584,VALID,165,VALID,0,
2012-09-02, 00:03:04,VALID,1010.93,VALID,0,VALID,104,VALID,0,VALID,23.462,VALID,165,VALID,0,
2012-09-02, 00:04:04,VALID,1010.9,VALID,0,VALID,104,VALID,0,VALID,23.4407,VALID,165,VALID,0,
2012-09-02, 00:05:04,VALID,1010.91,VALID,0,VALID,104,VALID,0,VALID,23.4797,VALID,165,VALID,0,
2012-09-02, 00:06:04,VALID,1010.9,VALID,0,VALID,104,VALID,0,VALID,23.4602,VALID,165,VALID,0,
2012-09-02, 00:07:04,VALID,1010.86,VALID,0,VALID,104,VALID,0,VALID,23.4797,VALID,165,VALID,0,
2012-09-02, 00:08:04,VALID,1010.87,VALID,0,VALID,104,VALID,0,VALID,23.4602,VALID,165,VALID,0,
2012-09-02, 00:09:04,VALID,1010.87,VALID,0,VALID,104,VALID,0,VALID,23.4212,VALID,165,VALID,0,
2012-09-02, 00:10:04,VALID,1010.84,VALID,0,VALID,104,VALID,0,VALID,23.4017,VALID,165,VALID,0,
2012-09-02, 00:11:04,VALID,1010.83,VALID,0,VALID,104,VALID,0,VALID,23.3823,VALID,165,VALID,0,
2012-09-02, 00:12:04,VALID,1010.79,VALID,0,VALID,104,VALID,0,VALID,23.3823,VALID,165,VALID,0,
2012-09-02, 00:13:04,VALID,1010.77,VALID,0,VALID,104,VALID,0,VALID,23.4017,VALID,165,VALID,0,
2012-09-02, 00:14:04,VALID,1010.74,VALID,0,VALID,104,VALID,0,VALID,23.3823,VALID,165,VALID,0,
2012-09-02, 00:15:04,VALID,1010.74,VALID,0,VALID,104,VALID,0,VALID,23.3628,VALID,165,VALID,0,
2012-09-02, 00:16:04,VALID,1010.71,VALID,0,VALID,104,VALID,0,VALID,23.3238,VALID,165,VALID,0,
2012-09-02, 00:17:04,VALID,1010.71,VALID,0,VALID,104,VALID,0,VALID,23.3043,VALID,165,VALID,0,
2012-09-02, 00:18:04,VALID,1010.69,VALID,0,VALID,104,VALID,0,VALID,23.2848,VALID,165,VALID,0,
2012-09-02, 00:19:04,VALID,1010.67,VALID,0,VALID,104,VALID,0,VALID,23.2848,VALID,165,VALID,0,
2012-09-02, 00:20:04,VALID,1010.65,VALID,0,VALID,104,VALID,0,VALID,23.2459,VALID,165,VALID,0,
2012-09-02, 00:21:04,VALID,1010.65,VALID,0,VALID,104,VALID,0,VALID,23.2264,VALID,165,VALID,0,
2012-09-02, 00:22:04,VALID,1010.64,VALID,0,VALID,104,VALID,0,VALID,23.2264,VALID,165,VALID,0,
2012-09-02, 00:23:04,VALID,1010.62,VALID,0,VALID,104,VALID,0,VALID,23.2069,VALID,165,VALID,0,
2012-09-02, 00:24:04,VALID,1010.6,VALID,0,VALID,104,VALID,0,VALID,23.2069,VALID,165,VALID,0,
2012-09-02, 00:25:04,VALID,1010.57,VALID,0,VALID,104,VALID,0,VALID,23.1874,VALID,165,VALID,0,
2012-09-02, 00:26:04,VALID,1010.56,VALID,0,VALID,104,VALID,0,VALID,23.1467,VALID,165,VALID,0,
2012-09-02, 00:27:04,VALID,1010.55,VALID,0,VALID,104,VALID,0,VALID,23.1485,VALID,165,VALID,0,
2012-09-02, 00:28:04,VALID,1010.55,VALID,0,VALID,104,VALID,0,VALID,23.129,VALID,165,VALID,0,
2012-09-02, 00:29:04,VALID,1010.51,VALID,0,VALID,104,VALID,0,VALID,23.129,VALID,165,VALID,0,
2012-09-02, 00:30:04,VALID,1010.53,VALID,0,VALID,104,VALID,0,VALID,23.1095,VALID,165,VALID,0,
2012-09-02, 00:31:04,VALID,1010.51,VALID,0,VALID,104,VALID,0,VALID,23.09,VALID,165,VALID,0,
2012-09-02, 00:32:04,VALID,1010.5,VALID,0,VALID,104,VALID,0,VALID,23.0511,VALID,165,VALID,0,
2012-09-02, 00:33:04,VALID,1010.49,VALID,0,VALID,104,VALID,0,VALID,23.0298,VALID,165,VALID,0,
2012-09-02, 00:34:04,VALID,1010.46,VALID,0,VALID,104,VALID,0,VALID,23.0316,VALID,165,VALID,0,
2012-09-02, 00:35:04,VALID,1010.44,VALID,0,VALID,104,VALID,0,VALID,23.0316,VALID,165,VALID,0,
2012-09-02, 00:36:04,VALID,1010.39,VALID,0,VALID,104,VALID,0,VALID,23.0121,VALID,165,VALID,0,
2012-09-02, 00:37:04,VALID,1010.38,VALID,0,VALID,104,VALID,0,VALID,23.0121,VALID,165,VALID,0,
2012-09-02, 00:38:04,VALID,1010.38,VALID,0,VALID,104,VALID,0,VALID,22.9926,VALID,165,VALID,0,
2012-09-02, 00:39:04,VALID,1010.38,VALID,0,VALID,104,VALID,0,VALID,22.9926,VALID,165,VALID,0,
2012-09-02, 00:40:04,VALID,1010.36,VALID,0,VALID,104,VALID,0,VALID,22.9519,VALID,165,VALID,0,
2012-09-02, 00:41:04,VALID,1010.37,VALID,0,VALID,104,VALID,0,VALID,22.9536,VALID,165,VALID,0,
2012-09-02, 00:42:04,VALID,1010.35,VALID,0,VALID,104,VALID,0,VALID,22.9554,VALID,165,VALID,0,
2012-09-02, 00:43:04,VALID,1010.35,VALID,0,VALID,104,VALID,0,VALID,22.9129,VALID,165,VALID,0,
2012-09-02, 00:44:04,VALID,1010.35,VALID,0,VALID,104,VALID,0,VALID,22.9129,VALID,165,VALID,0,
2012-09-02, 00:45:04,VALID,1010.33,VALID,0,VALID,104,VALID,0,VALID,22.874,VALID,165,VALID,0,
2012-09-02, 00:46:04,VALID,1010.28,VALID,0,VALID,104,VALID,0,VALID,22.8952,VALID,165,VALID,0,
2012-09-02, 00:47:04,VALID,1010.3,VALID,0,VALID,104,VALID,0.112112,VALID,22.8757,VALID,165,VALID,0,
2012-09-02, 00:48:04,VALID,1010.26,VALID,0,VALID,104,VALID,0,VALID,22.8562,VALID,165,VALID,0,
2012-09-02, 00:49:04,VALID,1010.25,VALID,0,VALID,104,VALID,0,VALID,22.8562,VALID,165,VALID,0,
2012-09-02, 00:50:04,VALID,1010.24,VALID,0,VALID,104,VALID,0,VALID,22.8562,VALID,165,VALID,0,
2012-09-02, 00:51:04,VALID,1010.23,VALID,0,VALID,104,VALID,0,VALID,22.835,VALID,165,VALID,0,
2012-09-02, 00:52:04,VALID,1010.21,VALID,0,VALID,104,VALID,0,VALID,22.8368,VALID,165,VALID,0,
2012-09-02, 00:53:04,VALID,1010.18,VALID,0,VALID,104,VALID,0,VALID,22.7978,VALID,165,VALID,0,
2012-09-02, 00:54:04,VALID,1010.17,VALID,0,VALID,104,VALID,0,VALID,22.7978,VALID,165,VALID,0,
2012-09-02, 00:55:04,VALID,1010.17,VALID,0,VALID,104,VALID,0,VALID,22.7783,VALID,165,VALID,0,
2012-09-02, 00:56:04,VALID,1010.15,VALID,0,VALID,104,VALID,0,VALID,22.7588,VALID,165,VALID,0,
2012-09-02, 00:57:04,VALID,1010.13,VALID,0,VALID,104,VALID,0,VALID,22.7394,VALID,165,VALID,0,
2012-09-02, 00:58:04,VALID,1010.13,VALID,0,VALID,104,VALID,0,VALID,22.7394,VALID,165,VALID,0,
2012-09-02, 00:59:04,VALID,1010.1,VALID,0,VALID,104,VALID,0,VALID,22.7394,VALID,165,VALID,0,
2012-09-02, 01:00:04,VALID,1010.08,VALID,0,VALID,104,VALID,0,VALID,22.7394,VALID,165,VALID,0,
2012-09-02, 01:01:04,VALID,1010.05,VALID,0,VALID,104,VALID,0,VALID,22.7199,VALID,165,VALID,0,
2012-09-02, 01:02:04,VALID,1010.07,VALID,0,VALID,104,VALID,0,VALID,22.7182,VALID,165,VALID,0,
2012-09-02, 01:03:04,VALID,1010.04,VALID,0,VALID,104,VALID,0,VALID,22.7182,VALID,165,VALID,0,
2012-09-02, 01:04:04,VALID,1010.03,VALID,0,VALID,104,VALID,0,VALID,22.7199,VALID,165,VALID,0,
2012-09-02, 01:05:04,VALID,1010.01,VALID,0,VALID,104,VALID,0,VALID,22.6987,VALID,165,VALID,0,
2012-09-02, 01:06:04,VALID,1010,VALID,0,VALID,104,VALID,0,VALID,22.7004,VALID,165,VALID,0,
2012-09-02, 01:07:04,VALID,1010.02,VALID,0,VALID,104,VALID,0,VALID,22.6614,VALID,165,VALID,0,
2012-09-02, 01:08:04,VALID,1009.95,VALID,0,VALID,104,VALID,0,VALID,22.6809,VALID,165,VALID,0,
2012-09-02, 01:09:04,VALID,1009.95,VALID,0,VALID,104,VALID,0,VALID,22.6597,VALID,165,VALID,0,
2012-09-02, 01:10:04,VALID,1009.9,VALID,0,VALID,104,VALID,0,VALID,22.6614,VALID,165,VALID,0,
2012-09-02, 01:11:04,VALID,1009.9,VALID,0,VALID,104,VALID,0,VALID,22.6614,VALID,165,VALID,0,
2012-09-02, 01:12:04,VALID,1009.87,VALID,0,VALID,104,VALID,0.112112,VALID,22.6614,VALID,165,VALID,0,
2012-09-02, 01:13:04,VALID,1009.87,VALID,0,VALID,104,VALID,0,VALID,22.642,VALID,165,VALID,0,
2012-09-02, 01:14:04,VALID,1009.86,VALID,0,VALID,104,VALID,0.112112,VALID,22.6013,VALID,165,VALID,0,
2012-09-02, 01:15:04,VALID,1009.85,VALID,0,VALID,104,VALID,0,VALID,22.6013,VALID,165,VALID,0,
2012-09-02, 01:16:04,VALID,1009.83,VALID,0,VALID,104,VALID,0,VALID,22.603,VALID,165,VALID,0,
2012-09-02, 01:17:04,VALID,1009.8,VALID,0,VALID,104,VALID,0,VALID,22.603,VALID,165,VALID,0,
2012-09-02, 01:18:04,VALID,1009.82,VALID,0,VALID,104,VALID,0,VALID,22.5835,VALID,165,VALID,0,
2012-09-02, 01:19:04,VALID,1009.81,VALID,0,VALID,104,VALID,0,VALID,22.5835,VALID,165,VALID,0,
2012-09-02, 01:20:04,VALID,1009.81,VALID,0,VALID,104,VALID,0,VALID,22.5623,VALID,165,VALID,0,
2012-09-02, 01:21:04,VALID,1009.81,VALID,0,VALID,104,VALID,0,VALID,22.5429,VALID,165,VALID,0,
2012-09-02, 01:22:04,VALID,1009.82,VALID,0,VALID,104,VALID,0,VALID,22.564,VALID,165,VALID,0,
2012-09-02, 01:23:04,VALID,1009.81,VALID,0,VALID,104,VALID,0.112112,VALID,22.5234,VALID,165,VALID,0,
2012-09-02, 01:24:04,VALID,1009.79,VALID,0,VALID,104,VALID,0.112112,VALID,22.5818,VALID,164,VALID,0,
2012-09-02, 01:25:04,VALID,1009.79,VALID,0,VALID,104,VALID,0,VALID,22.6208,VALID,164,VALID,0,
2012-09-02, 01:26:04,VALID,1009.77,VALID,0,VALID,104,VALID,0,VALID,22.6614,VALID,164,VALID,0,
2012-09-02, 01:27:04,VALID,1009.75,VALID,0,VALID,104,VALID,0.112112,VALID,22.6013,VALID,158,VALID,0.423828,
2012-09-02, 01:28:04,VALID,1009.71,VALID,0,VALID,104,VALID,0,VALID,22.6225,VALID,153,VALID,0.201562,
2012-09-02, 01:29:04,VALID,1009.7,VALID,0,VALID,104,VALID,0.112112,VALID,22.603,VALID,153,VALID,0,
2012-09-02, 01:30:04,VALID,1009.72,VALID,0,VALID,104,VALID,0,VALID,22.6013,VALID,152,VALID,0,
2012-09-02, 01:31:04,VALID,1009.71,VALID,0,VALID,104,VALID,0,VALID,22.642,VALID,70,VALID,0,
2012-09-02, 01:32:04,VALID,1009.72,VALID,0,VALID,104,VALID,0,VALID,22.642,VALID,70,VALID,0,
2012-09-02, 01:33:04,VALID,1009.74,VALID,0,VALID,104,VALID,0,VALID,22.6225,VALID,70,VALID,0,
2012-09-02, 01:34:04,VALID,1009.72,VALID,0,VALID,104,VALID,0,VALID,22.5818,VALID,70,VALID,0,
2012-09-02, 01:35:04,VALID,1009.69,VALID,0,VALID,104,VALID,0,VALID,22.603,VALID,70,VALID,0,
2012-09-02, 01:36:04,VALID,1009.67,VALID,0,VALID,104,VALID,0,VALID,22.603,VALID,70,VALID,0,
2012-09-02, 01:37:04,VALID,1009.67,VALID,0,VALID,104,VALID,0,VALID,22.603,VALID,70,VALID,0,
2012-09-02, 01:38:04,VALID,1009.65,VALID,0,VALID,104,VALID,0.112112,VALID,22.603,VALID,70,VALID,0,
2012-09-02, 01:39:04,VALID,1009.66,VALID,0,VALID,104,VALID,0,VALID,22.564,VALID,70,VALID,0,
2012-09-02, 01:40:04,VALID,1009.66,VALID,0,VALID,104,VALID,0.112112,VALID,22.5835,VALID,70,VALID,0,
2012-09-02, 01:41:04,VALID,1009.65,VALID,0,VALID,104,VALID,0,VALID,22.5429,VALID,70,VALID,0,
2012-09-02, 01:42:04,VALID,1009.65,VALID,0,VALID,104,VALID,0,VALID,22.5429,VALID,70,VALID,0,
2012-09-02, 01:43:04,VALID,1009.65,VALID,0,VALID,104,VALID,0,VALID,22.5446,VALID,70,VALID,0,
2012-09-02, 01:44:04,VALID,1009.63,VALID,0,VALID,104,VALID,0,VALID,22.5251,VALID,70,VALID,0,
2012-09-02, 01:45:04,VALID,1009.64,VALID,0,VALID,104,VALID,0.112112,VALID,22.5251,VALID,70,VALID,0,
2012-09-02, 01:46:04,VALID,1009.61,VALID,0,VALID,104,VALID,0,VALID,22.5446,VALID,70,VALID,0,
2012-09-02, 01:47:04,VALID,1009.61,VALID,0,VALID,104,VALID,0,VALID,22.5446,VALID,70,VALID,0,
2012-09-02, 01:48:04,VALID,1009.61,VALID,0,VALID,104,VALID,0,VALID,22.5446,VALID,70,VALID,0,
2012-09-02, 01:49:04,VALID,1009.59,VALID,0,VALID,104,VALID,0,VALID,22.5446,VALID,70,VALID,0,
2012-09-02, 01:50:04,VALID,1009.61,VALID,0,VALID,104,VALID,0,VALID,22.5056,VALID,70,VALID,0,
2012-09-02, 01:51:04,VALID,1009.58,VALID,0,VALID,104,VALID,0,VALID,22.5056,VALID,70,VALID,0,
2012-09-02, 01:52:04,VALID,1009.57,VALID,0,VALID,104,VALID,0,VALID,22.5251,VALID,70,VALID,0,
2012-09-02, 01:53:04,VALID,1009.58,VALID,0,VALID,104,VALID,0,VALID,22.5251,VALID,70,VALID,0,
2012-09-02, 01:54:04,VALID,1009.56,VALID,0,VALID,104,VALID,0,VALID,22.5251,VALID,70,VALID,0,
2012-09-02, 01:55:04,VALID,1009.54,VALID,0,VALID,104,VALID,0,VALID,22.5234,VALID,70,VALID,0,
2012-09-02, 01:56:04,VALID,1009.54,VALID,0,VALID,104,VALID,0,VALID,22.5251,VALID,70,VALID,0,
2012-09-02, 01:57:04,VALID,1009.53,VALID,0,VALID,104,VALID,0,VALID,22.5056,VALID,70,VALID,0,
2012-09-02, 01:58:04,VALID,1009.52,VALID,0,VALID,104,VALID,0,VALID,22.4861,VALID,70,VALID,0,
2012-09-02, 01:59:04,VALID,1009.52,VALID,0,VALID,104,VALID,0,VALID,22.4861,VALID,70,VALID,0,
2012-09-02, 02:00:04,VALID,1009.5,VALID,0,VALID,104,VALID,0,VALID,22.4861,VALID,70,VALID,0,
2012-09-02, 02:01:04,VALID,1009.48,VALID,0,VALID,104,VALID,0,VALID,22.4861,VALID,70,VALID,0,
2012-09-02, 02:02:04,VALID,1009.49,VALID,0,VALID,104,VALID,0,VALID,22.5056,VALID,70,VALID,0,
2012-09-02, 02:03:04,VALID,1009.46,VALID,0,VALID,104,VALID,0,VALID,22.5056,VALID,70,VALID,0,
2012-09-02, 02:04:04,VALID,1009.43,VALID,0,VALID,104,VALID,0,VALID,22.4861,VALID,70,VALID,0,
2012-09-02, 02:05:04,VALID,1009.39,VALID,0,VALID,104,VALID,0,VALID,22.465,VALID,70,VALID,0,
2012-09-02, 02:06:04,VALID,1009.3,VALID,0,VALID,104,VALID,0,VALID,22.4667,VALID,69,VALID,0,
2012-09-02, 02:07:04,VALID,1009.33,VALID,0,VALID,104,VALID,0,VALID,22.4472,VALID,70,VALID,0,
2012-09-02, 02:08:04,VALID,1009.3,VALID,0,VALID,104,VALID,0,VALID,22.4065,VALID,70,VALID,0,
2012-09-02, 02:09:04,VALID,1009.31,VALID,0,VALID,104,VALID,0,VALID,22.387,VALID,70,VALID,0,
2012-09-02, 02:10:04,VALID,1009.3,VALID,0,VALID,104,VALID,0.112112,VALID,22.3676,VALID,70,VALID,0,
2012-09-02, 02:11:04,VALID,1009.32,VALID,0,VALID,104,VALID,0,VALID,22.3693,VALID,70,VALID,0,
2012-09-02, 02:12:04,VALID,1009.29,VALID,0,VALID,104,VALID,0,VALID,22.3303,VALID,70,VALID,0,
2012-09-02, 02:13:04,VALID,1009.28,VALID,0,VALID,104,VALID,0,VALID,22.3303,VALID,70,VALID,0,
2012-09-02, 02:14:04,VALID,1009.28,VALID,0,VALID,104,VALID,0,VALID,22.3108,VALID,69,VALID,0,
2012-09-02, 02:15:04,VALID,1009.25,VALID,0,VALID,104,VALID,0.112112,VALID,22.3108,VALID,69,VALID,0,
2012-09-02, 02:16:04,VALID,1009.23,VALID,0,VALID,104,VALID,0,VALID,22.3108,VALID,69,VALID,0,
2012-09-02, 02:17:04,VALID,1009.21,VALID,0,VALID,104,VALID,0,VALID,22.3303,VALID,69,VALID,0,
2012-09-02, 02:18:04,VALID,1009.21,VALID,0,VALID,104,VALID,0,VALID,22.2897,VALID,69,VALID,0,
2012-09-02, 02:19:04,VALID,1009.22,VALID,0,VALID,104,VALID,0,VALID,22.3108,VALID,69,VALID,0,
2012-09-02, 02:20:04,VALID,1009.21,VALID,0,VALID,104,VALID,0,VALID,22.3303,VALID,69,VALID,0,
2012-09-02, 02:21:04,VALID,1009.19,VALID,0,VALID,104,VALID,0,VALID,22.3303,VALID,69,VALID,0,
2012-09-02, 02:22:04,VALID,1009.2,VALID,0,VALID,104,VALID,0.112112,VALID,22.3108,VALID,69,VALID,0,
2012-09-02, 02:23:04,VALID,1009.19,VALID,0,VALID,104,VALID,0,VALID,22.2897,VALID,69,VALID,0,
2012-09-02, 02:24:04,VALID,1009.16,VALID,0,VALID,104,VALID,0,VALID,22.2914,VALID,69,VALID,0,
2012-09-02, 02:25:04,VALID,1009.14,VALID,0,VALID,104,VALID,0,VALID,22.3108,VALID,69,VALID,0,
2012-09-02, 02:26:04,VALID,1009.16,VALID,0,VALID,104,VALID,0,VALID,22.3303,VALID,69,VALID,0,
2012-09-02, 02:27:04,VALID,1009.13,VALID,0,VALID,104,VALID,0,VALID,22.3498,VALID,69,VALID,0,
2012-09-02, 02:28:04,VALID,1009.14,VALID,0,VALID,104,VALID,0,VALID,22.3693,VALID,69,VALID,0,
2012-09-02, 02:29:04,VALID,1009.13,VALID,0,VALID,104,VALID,0,VALID,22.3887,VALID,69,VALID,0,
2012-09-02, 02:30:04,VALID,1009.14,VALID,0,VALID,104,VALID,0,VALID,22.3693,VALID,69,VALID,0,
2012-09-02, 02:31:04,VALID,1009.15,VALID,0,VALID,104,VALID,0.112112,VALID,22.3693,VALID,69,VALID,0,
2012-09-02, 02:32:04,VALID,1009.13,VALID,0,VALID,104,VALID,0.112112,VALID,22.3498,VALID,69,VALID,0,
2012-09-02, 02:33:04,VALID,1009.12,VALID,0,VALID,104,VALID,0,VALID,22.3286,VALID,69,VALID,0,
2012-09-02, 02:34:04,VALID,1009.17,VALID,0,VALID,104,VALID,0,VALID,22.3498,VALID,69,VALID,0,
2012-09-02, 02:35:04,VALID,1009.15,VALID,0,VALID,104,VALID,0,VALID,22.3498,VALID,69,VALID,0,
2012-09-02, 02:36:04,VALID,1009.15,VALID,0,VALID,104,VALID,0,VALID,22.3108,VALID,69,VALID,0,
2012-09-02, 02:37:04,VALID,1009.15,VALID,0,VALID,104,VALID,0,VALID,22.2719,VALID,69,VALID,0,
2012-09-02, 02:38:04,VALID,1009.18,VALID,0,VALID,104,VALID,0,VALID,22.2719,VALID,69,VALID,0,
2012-09-02, 02:39:04,VALID,1009.22,VALID,0,VALID,104,VALID,0,VALID,22.2719,VALID,69,VALID,0,
2012-09-02, 02:40:04,VALID,1009.22,VALID,0,VALID,104,VALID,0,VALID,22.2914,VALID,69,VALID,0,
2012-09-02, 02:41:04,VALID,1009.25,VALID,0,VALID,104,VALID,0,VALID,22.3108,VALID,69,VALID,0,
2012-09-02, 02:42:04,VALID,1009.27,VALID,0,VALID,104,VALID,0,VALID,22.2719,VALID,69,VALID,0,
2012-09-02, 02:43:04,VALID,1009.29,VALID,0,VALID,104,VALID,0,VALID,22.2719,VALID,69,VALID,0,
2012-09-02, 02:44:04,VALID,1009.3,VALID,0,VALID,104,VALID,0,VALID,22.2312,VALID,69,VALID,0,
2012-09-02, 02:45:04,VALID,1009.29,VALID,0,VALID,104,VALID,0.112112,VALID,22.2524,VALID,69,VALID,0,
2012-09-02, 02:46:04,VALID,1009.28,VALID,0,VALID,104,VALID,0,VALID,22.2329,VALID,69,VALID,0,
2012-09-02, 02:47:04,VALID,1009.28,VALID,0,VALID,104,VALID,0,VALID,22.2134,VALID,69,VALID,0,
2012-09-02, 02:48:04,VALID,1009.27,VALID,0,VALID,104,VALID,0.112112,VALID,22.194,VALID,69,VALID,0,
2012-09-02, 02:49:04,VALID,1009.25,VALID,0,VALID,104,VALID,0,VALID,22.155,VALID,69,VALID,0,
2012-09-02, 02:50:04,VALID,1009.25,VALID,0,VALID,104,VALID,0,VALID,22.1339,VALID,69,VALID,0,
2012-09-02, 02:51:04,VALID,1009.25,VALID,0,VALID,104,VALID,0,VALID,22.1355,VALID,69,VALID,0,
2012-09-02, 02:52:04,VALID,1009.25,VALID,0,VALID,104,VALID,0,VALID,22.1161,VALID,69,VALID,0,
2012-09-02, 02:53:04,VALID,1009.23,VALID,0,VALID,104,VALID,0.112112,VALID,22.0949,VALID,69,VALID,0,
2012-09-02, 02:54:04,VALID,1009.22,VALID,0,VALID,104,VALID,0,VALID,22.0966,VALID,69,VALID,0,
2012-09-02, 02:55:04,VALID,1009.22,VALID,0,VALID,104,VALID,0,VALID,22.0966,VALID,69,VALID,0,
2012-09-02, 02:56:04,VALID,1009.21,VALID,0,VALID,104,VALID,0,VALID,22.0966,VALID,69,VALID,0,
2012-09-02, 02:57:04,VALID,1009.22,VALID,0,VALID,104,VALID,0,VALID,22.0771,VALID,69,VALID,0,
2012-09-02, 02:58:04,VALID,1009.25,VALID,0,VALID,104,VALID,0,VALID,22.0966,VALID,69,VALID,0,
2012-09-02, 02:59:04,VALID,1009.23,VALID,0,VALID,104,VALID,0,VALID,22.1161,VALID,69,VALID,0,
2012-09-02, 03:00:04,VALID,1009.25,VALID,0,VALID,104,VALID,0.112112,VALID,22.0966,VALID,69,VALID,0,
2012-09-02, 03:01:04,VALID,1009.25,VALID,0,VALID,104,VALID,0,VALID,22.0949,VALID,69,VALID,0,
2012-09-02, 03:02:04,VALID,1009.27,VALID,0,VALID,104,VALID,0,VALID,22.1339,VALID,69,VALID,0,
2012-09-02, 03:03:04,VALID,1009.3,VALID,0,VALID,104,VALID,0,VALID,22.1745,VALID,69,VALID,0,
2012-09-02, 03:04:04,VALID,1009.35,VALID,0,VALID,104,VALID,0,VALID,22.1355,VALID,69,VALID,0,
2012-09-02, 03:05:04,VALID,1009.37,VALID,0,VALID,104,VALID,0,VALID,22.155,VALID,69,VALID,0,
2012-09-02, 03:06:04,VALID,1009.36,VALID,0,VALID,104,VALID,0,VALID,22.1339,VALID,69,VALID,0,
2012-09-02, 03:07:04,VALID,1009.35,VALID,0,VALID,104,VALID,0,VALID,22.1161,VALID,69,VALID,0,
2012-09-02, 03:08:04,VALID,1009.34,VALID,0,VALID,104,VALID,0,VALID,22.0365,VALID,69,VALID,0.23125,
2012-09-02, 03:09:04,VALID,1009.39,VALID,0,VALID,104,VALID,0,VALID,22.056,VALID,69,VALID,0,
2012-09-02, 03:10:04,VALID,1009.37,VALID,0,VALID,104,VALID,0.112112,VALID,22.0365,VALID,69,VALID,0,
2012-09-02, 03:11:04,VALID,1009.4,VALID,0,VALID,104,VALID,0.112112,VALID,21.9975,VALID,69,VALID,0,
2012-09-02, 03:12:04,VALID,1009.41,VALID,0,VALID,104,VALID,0,VALID,21.9391,VALID,69,VALID,0,
2012-09-02, 03:13:04,VALID,1009.42,VALID,0,VALID,104,VALID,0.112112,VALID,21.9408,VALID,69,VALID,0,
2012-09-02, 03:14:04,VALID,1009.42,VALID,0,VALID,104,VALID,0,VALID,21.9213,VALID,69,VALID,0,
2012-09-02, 03:15:04,VALID,1009.41,VALID,0,VALID,104,VALID,0.112112,VALID,21.9002,VALID,69,VALID,0,
2012-09-02, 03:16:04,VALID,1009.4,VALID,0,VALID,104,VALID,0.112112,VALID,21.9018,VALID,69,VALID,0,
2012-09-02, 03:17:04,VALID,1009.39,VALID,0,VALID,104,VALID,0,VALID,21.8824,VALID,69,VALID,0,
2012-09-02, 03:18:04,VALID,1009.39,VALID,0,VALID,104,VALID,0,VALID,21.8612,VALID,69,VALID,0,
2012-09-02, 03:19:04,VALID,1009.39,VALID,0,VALID,104,VALID,0.112112,VALID,21.8824,VALID,69,VALID,0,
2012-09-02, 03:20:04,VALID,1009.4,VALID,0,VALID,104,VALID,0,VALID,21.8824,VALID,69,VALID,0,
2012-09-02, 03:21:04,VALID,1009.37,VALID,0,VALID,104,VALID,0,VALID,21.9018,VALID,69,VALID,0,
2012-09-02, 03:22:04,VALID,1009.4,VALID,0,VALID,104,VALID,0,VALID,21.9018,VALID,69,VALID,0,
2012-09-02, 03:23:04,VALID,1009.42,VALID,0,VALID,104,VALID,0,VALID,21.8612,VALID,69,VALID,0,
2012-09-02, 03:24:04,VALID,1009.43,VALID,0,VALID,104,VALID,0,VALID,21.8824,VALID,69,VALID,0,
2012-09-02, 03:25:04,VALID,1009.43,VALID,0,VALID,104,VALID,0,VALID,21.8612,VALID,69,VALID,0,
2012-09-02, 03:26:04,VALID,1009.44,VALID,0,VALID,104,VALID,0,VALID,21.8629,VALID,69,VALID,0,
2012-09-02, 03:27:04,VALID,1009.47,VALID,0,VALID,104,VALID,0,VALID,21.8418,VALID,69,VALID,0,
2012-09-02, 03:28:04,VALID,1009.45,VALID,0,VALID,104,VALID,0.112112,VALID,21.8434,VALID,69,VALID,0,
2012-09-02, 03:29:04,VALID,1009.46,VALID,0,VALID,104,VALID,0.112112,VALID,21.8223,VALID,69,VALID,0,
2012-09-02, 03:30:04,VALID,1009.42,VALID,0,VALID,104,VALID,0.112112,VALID,21.8028,VALID,69,VALID,0,
2012-09-02, 03:31:04,VALID,1009.41,VALID,0,VALID,104,VALID,0,VALID,21.7655,VALID,69,VALID,0,
2012-09-02, 03:32:04,VALID,1009.36,VALID,0,VALID,104,VALID,0,VALID,21.7672,VALID,69,VALID,0,
2012-09-02, 03:33:04,VALID,1009.34,VALID,0,VALID,104,VALID,0,VALID,21.7672,VALID,69,VALID,0,
2012-09-02, 03:34:04,VALID,1009.35,VALID,0,VALID,104,VALID,0,VALID,21.746,VALID,69,VALID,0,
2012-09-02, 03:35:04,VALID,1009.32,VALID,0,VALID,104,VALID,0,VALID,21.785,VALID,69,VALID,0,
2012-09-02, 03:36:04,VALID,1009.29,VALID,0,VALID,104,VALID,0,VALID,21.8256,VALID,69,VALID,0,
2012-09-02, 03:37:04,VALID,1009.3,VALID,0,VALID,104,VALID,0,VALID,21.8256,VALID,69,VALID,0,
2012-09-02, 03:38:04,VALID,1009.29,VALID,0,VALID,104,VALID,0,VALID,21.8061,VALID,69,VALID,0,
2012-09-02, 03:39:04,VALID,1009.26,VALID,0,VALID,104,VALID,0,VALID,21.746,VALID,69,VALID,0,
2012-09-02, 03:40:04,VALID,1009.24,VALID,0,VALID,104,VALID,0,VALID,21.7866,VALID,69,VALID,0,
2012-09-02, 03:41:04,VALID,1009.22,VALID,0,VALID,104,VALID,0,VALID,21.746,VALID,69,VALID,0,
2012-09-02, 03:42:04,VALID,1009.19,VALID,0,VALID,104,VALID,0,VALID,21.7266,VALID,69,VALID,0,
2012-09-02, 03:43:04,VALID,1009.15,VALID,0,VALID,104,VALID,0,VALID,21.7071,VALID,70,VALID,0,
2012-09-02, 03:44:04,VALID,1009.14,VALID,0,VALID,104,VALID,0,VALID,21.7087,VALID,69,VALID,0,
2012-09-02, 03:45:04,VALID,1009.12,VALID,0,VALID,104,VALID,0,VALID,21.6698,VALID,69,VALID,0,
2012-09-02, 03:46:04,VALID,1009.1,VALID,0,VALID,104,VALID,0.112112,VALID,21.6681,VALID,69,VALID,0,
2012-09-02, 03:47:04,VALID,1009.1,VALID,0,VALID,104,VALID,0.112112,VALID,21.6487,VALID,69,VALID,0,
2012-09-02, 03:48:04,VALID,1009.11,VALID,0,VALID,104,VALID,0,VALID,21.647,VALID,69,VALID,0,
2012-09-02, 03:49:04,VALID,1009.06,VALID,0,VALID,104,VALID,0.112112,VALID,21.6876,VALID,69,VALID,0,
2012-09-02, 03:50:04,VALID,1009.09,VALID,0,VALID,104,VALID,0.112112,VALID,21.6681,VALID,69,VALID,0,
2012-09-02, 03:51:04,VALID,1009.09,VALID,0,VALID,104,VALID,0,VALID,21.6681,VALID,69,VALID,0,
2012-09-02, 03:52:04,VALID,1009.11,VALID,0,VALID,104,VALID,0.112112,VALID,21.6876,VALID,70,VALID,0,
2012-09-02, 03:53:04,VALID,1009.09,VALID,0,VALID,104,VALID,0.112112,VALID,21.7071,VALID,69,VALID,0,
2012-09-02, 03:54:04,VALID,1009.13,VALID,0,VALID,104,VALID,0,VALID,21.6665,VALID,69,VALID,0,
2012-09-02, 03:55:04,VALID,1009.12,VALID,0,VALID,104,VALID,0,VALID,21.6876,VALID,69,VALID,0,
2012-09-02, 03:56:04,VALID,1009.12,VALID,0,VALID,104,VALID,0.112112,VALID,21.686,VALID,69,VALID,0,
2012-09-02, 03:57:04,VALID,1009.12,VALID,0,VALID,104,VALID,0,VALID,21.7655,VALID,70,VALID,0,
2012-09-02, 03:58:04,VALID,1009.14,VALID,0,VALID,104,VALID,0,VALID,21.7655,VALID,69,VALID,0,
2012-09-02, 03:59:04,VALID,1009.15,VALID,0,VALID,104,VALID,0,VALID,21.8045,VALID,69,VALID,0,
2012-09-02, 04:00:04,VALID,1009.15,VALID,0,VALID,104,VALID,0.112112,VALID,21.8434,VALID,70,VALID,0,
2012-09-02, 04:01:04,VALID,1009.14,VALID,0,VALID,104,VALID,0,VALID,21.8418,VALID,70,VALID,0,
2012-09-02, 04:02:04,VALID,1009.14,VALID,0,VALID,104,VALID,0.112112,VALID,21.8824,VALID,70,VALID,0,
2012-09-02, 04:03:04,VALID,1009.15,VALID,0,VALID,104,VALID,0.112112,VALID,21.8807,VALID,69,VALID,0,
2012-09-02, 04:04:04,VALID,1009.11,VALID,0,VALID,104,VALID,0,VALID,21.8807,VALID,70,VALID,0,
2012-09-02, 04:05:04,VALID,1009.14,VALID,0,VALID,104,VALID,0.112112,VALID,21.9391,VALID,69,VALID,0,
2012-09-02, 04:06:04,VALID,1009.13,VALID,0,VALID,104,VALID,0.112112,VALID,21.9603,VALID,70,VALID,0,
2012-09-02, 04:07:04,VALID,1009.13,VALID,0,VALID,104,VALID,0.112112,VALID,21.9391,VALID,70,VALID,0,
2012-09-02, 04:08:04,VALID,1009.08,VALID,0,VALID,104,VALID,0.112112,VALID,21.9603,VALID,70,VALID,0,